Wind_Speed
18 21 25 26 28 29 30 32 34 35 39 43 44 44 46 46 44 42 43 45 46 46 45 44 42 41 40 40 39 38 37 36 35 34 34 33 32 31 29 27 27 27 27 28
20 23 24 24 27 30 32 34 36 38 40 43 45 46 45 45 44 42 41 43 45 45 44 43 42 42 41 40 40 39 39 38 37 36 35 36 36 34 32 30 29 28 29 30
20 24 24 27 29 31 30 33 36 38 40 42 42 44 43 43 46 44 42 41 42 41 40 39 38 38 38 37 37 37 37 36 36 36 35 37 37 36 34 32 32 31 31 31
18 20 21 23 25 26 26 30 32 34 36 38 38 41 37 36 40 41 41 40 39 37 36 34 33 32 32 32 32 32 32 32 33 34 35 36 38 38 37 36 37 36 34 33
17 18 20 23 25 26 27 28 30 33 35 35 32 33 31 32 37 37 36 37 37 36 34 33 31 30 29 29 29 29 29 30 31 32 34 36 38 39 40 40 41 41 39 37
15 18 20 22 24 24 25 26 29 32 30 26 23 23 28 34 36 35 34 34 34 34 34 34 33 33 32 31 30 30 30 31 31 33 35 36 37 40 41 42 43 44 42 39
20 19 20 21 21 22 23 25 27 26 20 17 18 21 27 32 37 38 37 35 34 34 34 34 34 34 35 34 34 33 33 34 35 36 37 38 38 39 41 43 45 45 42 40
22 22 20 20 20 21 23 25 25 23 18 13 15 19 21 25 29 35 38 36 33 34 34 33 34 35 35 35 36 36 37 38 39 40 40 39 39 39 40 42 42 42 41 40
21 19 18 19 20 22 23 24 23 20 17 13 14 17 19 23 26 26 28 30 31 31 30 30 30 32 33 34 35 37 38 39 39 39 38 36 36 36 37 38 38 38 39 39
21 19 18 20 22 23 24 23 23 20 18 14 14 15 16 16 18 21 22 22 23 23 24 24 25 26 27 29 30 32 33 34 33 32 31 31 31 31 32 33 34 34 36 37
21 20 18 19 22 23 24 23 23 21 19 16 15 16 16 14 13 12 11 11 12 13 15 15 16 17 19 21 22 24 25 26 26 26 26 26 27 28 30 31 32 33 34 35
21 19 18 19 21 23 24 24 23 22 21 18 17 18 16 13 11 8 6 3 2 3 4 3 3 5 7 9 12 14 15 17 17 18 19 21 23 24 24 26 27 26 25 24
21 20 20 21 23 24 23 23 24 24 23 21 20 20 17 15 13 11 9 9 9 7 6 6 7 6 7 5 3 1 3 5 8 10 11 13 13 13 13 13 12 12 12 11
21 20 20 20 20 20 22 24 26 25 24 23 24 23 21 19 17 16 15 16 16 15 14 13 13 15 15 16 15 13 11 8 7 6 5 3 2 1 1 2 2 3 4 5
22 20 18 17 18 19 22 25 26 27 26 25 23 23 22 22 21 21 21 20 19 19 19 19 19 20 20 19 20 20 18 16 14 13 12 9 8 7 6 6 6 6 6 8
25 20 18 19 19 19 21 24 26 26 26 26 25 24 23 23 23 23 23 23 22 21 21 21 20 20 19 19 18 17 16 14 13 12 11 10 8 8 7 7 8 9 10 12
28 24 21 19 17 17 21 22 23 24 25 25 24 23 23 23 24 25 24 24 23 22 20 20 19 18 18 17 16 15 14 13 11 10 9 8 8 7 8 9 10 11 13 15
30 26 22 20 19 20 18 19 20 21 22 23 23 22 22 21 22 24 23 23 22 22 22 21 19 18 18 16 15 14 14 13 12 11 11 10 10 9 10 10 11 12 13 15
30 28 25 22 20 17 16 16 17 18 19 20 20 20 20 20 22 23 22 21 21 21 20 19 18 18 17 17 16 15 15 15 14 14 14 14 13 13 13 13 13 14 14 16
27 28 27 24 21 19 17 15 15 15 17 18 18 18 19 19 21 21 20 20 19 19 19 18 18 18 17 17 17 17 17 17 17 16 16 16 16 16 16 16 16 16 16 17
24 26 27 26 22 20 19 16 15 15 16 16 16 16 17 18 19 19 19 18 18 18 18 18 17 17 17 18 18 18 18 18 18 19 19 19 19 19 20 20 20 20 19 19
22 23 25 25 23 20 20 17 15 15 15 15 14 15 15 16 16 17 17 17 17 17 17 17 17 18 18 18 18 18 18 19 19 19 19 20 21 21 23 23 23 23 22 21
18 19 21 22 22 22 21 19 17 16 16 15 14 14 14 14 14 15 15 15 15 16 16 16 16 17 17 17 17 17 18 18 19 19 20 21 22 23 25 25 25 25 23 22
14 16 17 18 19 20 20 19 19 17 17 16 15 14 13 13 12 13 14 14 14 14 14 14 15 15 16 16 16 16 17 17 18 19 20 21 22 24 26 26 26 26 25 24
11 12 13 15 16 17 18 18 18 18 18 17 16 15 13 12 12 12 12 13 13 13 13 13 13 14 14 15 15 16 16 17 18 19 20 21 22 24 25 26 26 26 26 25
10 10 10 11 13 14 16 16 17 18 18 18 17 15 14 12 11 11 11 11 11 11 11 11 11 12 13 14 15 15 16 17 18 19 20 20 22 23 25 26 26 26 26 26
Wind_Direction
283 281 281 285 287 285 283 279 274 271 269 270 273 276 277 275 273 270 270 269 269 268 268 268 268 267 268 269 270 271 273 274 275 276 278 278 278 278 278 278 276 274 273 273
294 289 294 296 290 286 285 282 278 274 272 272 274 275 276 274 273 272 270 269 269 269 269 268 267 267 266 266 267 268 269 271 272 273 274 275 274 274 275 276 275 274 272 272
297 302 303 298 293 291 291 286 284 284 283 280 278 274 275 276 277 275 272 271 269 268 266 265 264 263 263 262 262 264 266 268 271 273 273 272 270 273 272 272 272 271 271 273
305 307 304 301 299 300 298 296 297 295 290 284 278 274 272 272 272 274 273 272 270 267 265 263 261 259 259 258 258 259 262 266 270 273 275 273 272 271 271 273 273 273 274 276
325 320 314 309 307 306 305 304 304 302 297 288 277 269 264 259 262 264 265 265 264 263 261 259 256 254 254 253 254 256 260 265 270 274 276 275 273 271 270 270 273 274 276 276
333 326 320 318 317 316 316 314 313 313 309 297 279 261 251 249 251 250 252 255 258 258 257 256 254 252 252 252 253 256 260 266 271 274 276 277 274 271 269 269 271 273 277 278
344 341 337 335 330 327 325 326 326 330 321 298 280 257 249 249 248 248 253 255 256 258 258 258 256 254 254 254 255 258 261 266 270 273 276 277 274 270 268 268 269 272 275 278
349 348 347 343 339 337 335 336 339 341 336 316 290 274 261 254 253 252 255 261 262 263 263 262 260 258 256 256 257 260 263 266 269 272 273 274 271 267 266 267 269 271 274 278
354 353 351 348 348 348 347 347 347 347 346 336 316 302 291 279 277 271 266 266 265 263 261 259 257 256 257 258 260 262 264 266 268 270 270 269 265 263 265 268 270 272 275 279
356 357 358 357 359 357 357 357 357 355 354 350 331 318 316 302 291 285 283 271 262 258 255 253 254 257 259 260 260 261 262 263 264 264 262 260 259 260 262 265 268 272 273 275
360 1 4 6 7 6 8 7 6 6 5 359 349 341 336 330 317 310 299 278 261 253 253 258 262 266 268 266 264 262 260 259 259 257 256 256 257 259 260 262 266 268 267 267
7 4 11 15 11 12 13 16 17 18 19 14 9 4 1 3 4 5 355 333 306 247 234 254 270 269 273 273 271 268 263 260 259 256 255 255 255 257 260 261 261 261 262 261
8 7 12 15 15 17 18 23 27 30 29 30 31 28 28 29 36 43 49 62 73 82 90 74 66 64 66 72 69 117 222 242 245 244 244 244 246 246 249 251 252 252 249 241
9 14 18 16 17 19 26 32 35 36 36 41 44 44 46 49 52 58 61 64 73 72 74 65 65 66 69 71 75 79 85 92 100 106 113 121 118 132 213 253 260 267 267 272
14 20 22 23 25 27 35 40 40 40 42 44 45 45 49 56 60 59 58 61 62 63 65 66 67 67 66 64 66 68 69 69 69 69 67 60 54 47 33 13 356 339 319 304
23 24 26 31 31 32 40 43 43 42 43 46 48 52 54 57 59 59 58 59 61 62 63 65 66 66 66 65 65 65 63 61 59 55 49 40 29 16 2 346 331 319 308 302
26 30 31 35 36 37 41 41 43 43 44 45 47 50 53 58 59 60 60 61 61 62 63 63 63 63 63 63 63 62 61 57 52 45 36 26 14 359 343 330 321 315 310 305
29 32 34 37 37 39 38 39 41 42 45 46 46 48 52 57 59 59 57 57 57 57 57 57 57 57 56 55 55 55 54 51 47 42 36 27 18 8 356 344 333 323 315 309
30 32 34 35 38 40 39 38 39 41 43 43 43 46 51 55 57 56 55 54 53 52 51 50 50 51 50 50 51 51 50 49 46 43 37 31 23 15 5 355 344 334 324 315
30 31 32 35 38 39 38 38 38 38 42 42 43 46 49 51 52 52 51 51 51 49 48 47 47 47 48 49 50 51 51 50 47 43 37 31 24 17 9 1 352 344 335 326
29 30 31 33 36 37 37 38 37 36 36 37 39 41 43 46 49 49 49 50 50 49 49 48 48 49 51 52 53 52 50 48 45 41 36 31 25 18 11 4 358 351 344 337
26 27 29 31 33 33 34 35 34 31 29 29 31 33 36 39 41 43 44 46 47 47 47 48 49 50 50 50 50 49 47 45 41 36 31 26 21 15 10 5 0 355 351 346
22 24 26 28 31 31 32 32 31 28 25 24 23 25 27 29 31 35 38 40 43 45 46 47 47 46 46 45 45 44 42 39 35 30 26 22 18 14 12 9 7 5 3 1
13 17 21 23 26 27 28 27 27 24 22 20 19 19 19 19 21 25 29 33 38 42 44 44 44 43 42 41 40 38 36 33 29 24 21 18 17 17 16 14 15 16 17 17
358 5 10 15 19 21 23 23 23 22 20 18 17 17 14 11 12 15 20 25 29 34 37 39 39 39 38 36 34 31 28 25 23 21 19 18 18 20 21 21 22 24 27 28
333 345 353 359 5 9 13 16 18 18 18 16 14 13 12 8 7 8 9 14 20 26 30 32 32 34 33 31 28 25 22 21 22 21 19 19 21 23 26 27 29 31 33 35
Height
5880 5880 5877 5876 5875 5874 5872 5871 5870 5869 5865 5864 5863 5862 5859 5858 5861 5863 5862 5861 5861 5862 5864 5866 5868 5869 5870 5870 5871 5872 5873 5873 5874 5875 5876 5876 5875 5875 5876 5877 5876 5876 5876 5876
5876 5874 5873 5872 5869 5867 5865 5862 5860 5858 5857 5855 5853 5852 5850 5848 5849 5852 5852 5851 5850 5852 5854 5855 5857 5859 5860 5861 5862 5863 5864 5865 5866 5867 5868 5868 5867 5867 5868 5869 5869 5868 5868 5869
5872 5870 5868 5865 5862 5859 5857 5853 5850 5848 5846 5844 5843 5841 5841 5838 5837 5839 5840 5840 5840 5842 5843 5845 5847 5849 5850 5852 5853 5854 5855 5856 5857 5858 5858 5858 5855 5856 5858 5859 5859 5860 5860 5861
5870 5867 5863 5860 5856 5852 5849 5845 5841 5838 5835 5833 5833 5829 5832 5830 5827 5827 5827 5829 5830 5832 5833 5835 5838 5839 5841 5843 5844 5846 5847 5848 5849 5850 5850 5850 5848 5847 5848 5848 5849 5850 5851 5853
5865 5862 5858 5855 5850 5846 5842 5838 5834 5829 5823 5820 5821 5819 5823 5820 5817 5817 5817 5817 5818 5821 5824 5826 5829 5831 5832 5834 5836 5838 5839 5840 5841 5842 5842 5842 5842 5842 5841 5840 5840 5840 5841 5843
5863 5859 5854 5850 5845 5841 5836 5832 5826 5820 5813 5810 5810 5810 5811 5809 5808 5808 5808 5806 5807 5810 5813 5816 5819 5822 5824 5826 5828 5830 5832 5833 5833 5834 5833 5833 5834 5834 5833 5833 5833 5832 5832 5834
5860 5856 5850 5846 5841 5837 5832 5826 5820 5814 5808 5805 5802 5801 5801 5799 5799 5798 5798 5796 5796 5800 5804 5807 5810 5812 5814 5817 5819 5821 5823 5824 5825 5825 5824 5824 5825 5825 5825 5825 5826 5825 5824 5826
5857 5853 5848 5843 5839 5833 5828 5823 5817 5811 5805 5801 5798 5795 5794 5792 5791 5791 5790 5789 5790 5793 5795 5798 5800 5802 5804 5807 5809 5811 5812 5814 5814 5814 5815 5815 5815 5815 5816 5817 5817 5817 5818 5818
5856 5852 5846 5841 5836 5831 5826 5820 5815 5809 5804 5800 5796 5792 5790 5787 5785 5784 5784 5784 5784 5786 5787 5789 5791 5793 5794 5796 5798 5800 5801 5802 5803 5804 5804 5804 5805 5806 5807 5808 5809 5809 5809 5810
5855 5851 5846 5841 5836 5830 5825 5819 5814 5808 5803 5799 5796 5791 5788 5784 5782 5780 5778 5778 5779 5780 5781 5782 5784 5785 5786 5787 5788 5789 5791 5792 5793 5793 5794 5795 5797 5798 5799 5800 5801 5801 5801 5802
5855 5850 5846 5840 5835 5830 5825 5819 5813 5808 5803 5799 5795 5794 5787 5783 5780 5778 5776 5775 5775 5777 5778 5780 5780 5781 5780 5780 5781 5781 5782 5784 5785 5786 5787 5788 5790 5791 5791 5792 5793 5793 5793 5793
5855 5850 5846 5841 5836 5831 5825 5820 5815 5810 5804 5799 5796 5795 5787 5783 5781 5778 5776 5776 5776 5776 5777 5777 5778 5778 5778 5777 5777 5777 5778 5778 5779 5781 5782 5782 5784 5785 5785 5785 5786 5786 5786 5786
5855 5851 5845 5841 5838 5833 5828 5822 5816 5812 5807 5802 5798 5797 5790 5786 5783 5781 5780 5779 5779 5778 5779 5778 5778 5778 5776 5776 5775 5775 5775 5776 5777 5778 5779 5779 5780 5781 5781 5781 5781 5782 5782 5783
5856 5851 5847 5844 5839 5835 5830 5824 5819 5815 5810 5806 5802 5799 5795 5791 5789 5786 5785 5784 5783 5782 5782 5781 5781 5780 5779 5778 5777 5777 5777 5777 5777 5778 5778 5779 5779 5779 5779 5779 5780 5780 5780 5781
5857 5852 5848 5845 5841 5837 5832 5827 5823 5819 5815 5810 5807 5804 5801 5798 5795 5793 5791 5789 5788 5787 5786 5786 5785 5784 5783 5783 5782 5781 5780 5781 5781 5780 5780 5781 5781 5780 5780 5780 5780 5780 5780 5780
5859 5854 5850 5846 5843 5840 5835 5831 5827 5824 5820 5816 5813 5810 5807 5803 5801 5798 5797 5795 5794 5793 5792 5791 5790 5789 5788 5787 5786 5786 5785 5785 5784 5784 5784 5783 5783 5782 5782 5781 5780 5780 5779 5778
5861 5856 5852 5849 5846 5843 5839 5836 5832 5829 5825 5822 5818 5816 5812 5809 5806 5804 5802 5801 5799 5798 5797 5796 5795 5794 5793 5792 5791 5790 5789 5788 5787 5787 5786 5785 5784 5783 5782 5781 5780 5778 5777 5775
5865 5860 5856 5852 5849 5845 5845 5840 5837 5834 5830 5827 5824 5820 5817 5815 5812 5809 5808 5806 5804 5803 5802 5800 5799 5798 5797 5795 5794 5793 5792 5791 5790 5789 5788 5786 5785 5784 5782 5780 5779 5777 5774 5772
5870 5865 5860 5856 5852 5849 5847 5844 5841 5838 5835 5832 5829 5826 5823 5820 5817 5814 5813 5811 5809 5807 5806 5804 5803 5801 5800 5799 5797 5796 5795 5793 5792 5791 5789 5788 5786 5784 5782 5779 5777 5774 5772 5769
5875 5870 5865 5860 5856 5853 5852 5848 5845 5844 5840 5836 5833 5831 5828 5825 5822 5821 5818 5816 5814 5812 5810 5808 5807 5805 5803 5802 5800 5799 5798 5796 5795 5793 5791 5789 5787 5784 5782 5779 5775 5772 5768 5765
5879 5875 5870 5865 5861 5857 5854 5851 5849 5848 5845 5841 5838 5835 5832 5829 5828 5825 5823 5820 5818 5816 5814 5812 5810 5809 5807 5805 5804 5802 5801 5799 5797 5795 5793 5791 5788 5785 5781 5777 5773 5769 5765 5760
5882 5878 5874 5870 5866 5864 5858 5855 5853 5851 5847 5844 5842 5839 5836 5834 5832 5829 5827 5825 5823 5821 5818 5816 5814 5813 5811 5809 5807 5806 5804 5802 5800 5798 5795 5792 5789 5785 5781 5776 5771 5766 5761 5756
5884 5881 5877 5874 5872 5867 5863 5860 5856 5853 5850 5847 5845 5842 5840 5838 5836 5834 5831 5829 5827 5825 5823 5820 5819 5817 5815 5813 5811 5809 5807 5805 5803 5800 5797 5794 5791 5786 5782 5776 5771 5765 5759 5754
5885 5883 5880 5877 5874 5870 5867 5863 5860 5857 5853 5850 5848 5845 5843 5841 5839 5837 5835 5833 5831 5829 5827 5825 5823 5821 5819 5816 5814 5812 5810 5808 5805 5802 5799 5796 5792 5788 5783 5777 5772 5766 5760 5755
5885 5883 5881 5879 5876 5873 5870 5866 5863 5860 5857 5853 5850 5848 5845 5843 5841 5839 5838 5836 5834 5832 5830 5828 5826 5824 5822 5820 5818 5815 5813 5811 5808 5805 5802 5798 5794 5790 5785 5780 5774 5769 5763 5758
5884 5883 5882 5880 5877 5875 5872 5869 5866 5863 5859 5856 5853 5850 5847 5845 5843 5841 5840 5838 5837 5835 5833 5831 5829 5827 5825 5823 5821 5818 5816 5813 5811 5807 5804 5800 5796 5792 5788 5783 5778 5773 5768 5763